Miscellaneous Local Product
Issued by NWS North Platte, NE

Home | Current Version | Previous Version | Text Only | Print | Product List | Glossary On
Versions: 1 2 3 4 5 6 7 8 9 10 11 12 13 14 15 16 17 18 19 20 21 22 23 24 25 26 27 28 29 30 31 32 33 34 35 36 37 38 39 40 41 42 43 44 45 46 47 48 49 50
000
AXUS43 KLBF 170910
MISLBF


WESTERN AND NORTH CENTRAL NEBRASKA HOURLY WEATHER ROUNDUP
NATIONAL WEATHER SERVICE NORTH PLATTE NE
400 AM CDT FRI APR 17 2015

***STATIONS NOT REPORTING VARIABLES SUCH AS SKY/WEATHER OR
PRESSURE ARE PROVIDED BY THE NEBRASKA DEPARTMENT OF
ROADS...RAWS...AND APRS NETWORKS...AND ARE NOT UNDER
NATIONAL WEATHER SERVICE QUALITY CONTROL***

...OBSERVATIONS IN AND NEAR THE EASTERN PANHANDLE OF NEBRASKA...

CITY           SKY/WX    TMP DP  RH WIND       PRES   REMARKS
PINE RIDGE     CLOUDY    43  36  76 E5        30.18S
CHADRON        CLOUDY    45  38  76 CALM      30.18S
ALLIANCE       LGT RAIN  45  42  89 N13       30.14F
SIDNEY         LGT RAIN  45  44  97 NE15      30.10S FOG
BIG SPRINGS      N/A     52  50  93 E12         N/A
$$

...OBSERVATIONS IN NORTH CENTRAL NEBRASKA...

CITY           SKY/WX    TMP DP  RH WIND       PRES   REMARKS
VALENTINE      CLOUDY    52  36  54 NE15      30.15S
THEDFORD       LGT RAIN  52  50  92 N7        30.14S
AINSWORTH      CLOUDY    51  40  68 N5        30.14S
O`NEILL        CLOUDY    51  50  94 NW3       30.13S
ORD            CLOUDY    54  49  83 N5        30.09S
BROKEN BOW     CLOUDY    55  50  83 NE6       30.10R
$$

...OBSERVATIONS IN SOUTHWEST NEBRASKA AND FAR NORTHEAST COLORADO...

CITY           SKY/WX    TMP DP  RH WIND       PRES   REMARKS
WRAY           LGT RAIN N/A N/A N/A NE9G16    30.05S
HOLYOKE        DRIZZLE   52  48  87 SE8       30.07R
IMPERIAL       RAIN      51  49  92 E10       30.07S
OGALLALA       LGT RAIN  51  50  97 E10       30.09S
NORTH PLATTE   LGT RAIN  52  51  97 CALM      30.11S
MCCOOK         RAIN      53  52  96 NE6       30.07F FOG
LEXINGTON      RAIN      54  52  94 CALM      30.10S
PAXTON           N/A     53  50  91 NE6         N/A
GOTHENBURG       N/A     53  49  86 CALM        N/A
CALLAWAY         N/A     54  51  90 E6          N/A
$$

...NORTH PLATTE AREA...

CITY           SKY/WX    TMP DP  RH WIND       PRES   REMARKS
AIRPORT        LGT RAIN  52  51  97 CALM      30.11S
$$

...SOME WEATHER OBSERVATIONS FROM AROUND THE REGION...

CITY           SKY/WX    TMP DP  RH WIND       PRES   REMARKS
DENVER         LGT RAIN  34  33  96 W7        30.06F VSB 1/4 WCI  28
LARAMIE        LGT SNOW  31  30  96 NE18      30.10F FOG     WCI  19
CHEYENNE       LGT SNOW  34  32  92 N18       30.11F FOG     WCI  23
SCOTTSBLUFF    LGT RAIN  45  43  93 NE22G29   30.13F
RAPID CITY     CLEAR     42  30  62 NW13      30.19F
PIERRE         CLEAR     40  32  73 N7        30.16S
WINNER         FAIR      46  35  65 NW9       30.16S
SIOUX FALLS    MOCLDY    49  41  74 CALM      30.12S
OMAHA          CLOUDY    55  51  86 N9        30.07S
GRAND ISLAND   CLOUDY    53  51  93 N6        30.09R
KANSAS CITY    PTCLDY    58  54  86 NE7       30.04S
WICHITA        CLOUDY    60  56  86 W6        30.03S
HAYS           CLOUDY    55  48  76 S3        30.08R
LIBERAL        CLOUDY    54  48  82 S9        29.96R
GOODLAND       CLOUDY    49  48  97 NE9       30.04F
$$



USA.gov is the U.S. government's official web portal to all federal, state and local government web resources and services.